| time (UTC) | temp C | wind direction | speed KPH | gust KPH | rain 1hr cm | rain 24hr cm | rain mn cm | humidity % | barometer mb |
| 20260504081147 | 8 | 199 | 1.6 | 1.6 | 0.00 | 0.00 | 0.00 | 93 | 1017.8 |
| 20260504080643 | 8 | 198 | 0.0 | 1.6 | 0.00 | 0.00 | 0.00 | 92 | 1018.0 |
| 20260504080139 | 8 | 198 | 0.0 | 0.0 | 0.00 | 0.00 | 0.00 | 92 | 1017.9 |
| 20260504070108 | 10 | 198 | 0.0 | 0.0 | 0.00 | 0.00 | 0.00 | 91 | 1018.2 |
| 20260504050456 | 11 | 199 | 0.0 | 0.0 | 0.00 | 0.00 | 0.00 | 86 | 1018.7 |
| 20260504045953 | 11 | 199 | 0.0 | 0.0 | 0.00 | 0.00 | 0.00 | 86 | 1018.7 |
| 20260504045449 | 11 | 199 | 0.0 | 0.0 | 0.00 | 0.00 | 0.00 | 86 | 1018.8 |
| 20260504044945 | 11 | 199 | 0.0 | 0.0 | 0.00 | 0.00 | 0.00 | 85 | 1018.7 |
| 20260504044443 | 11 | 199 | 0.0 | 0.0 | 0.00 | 0.00 | 0.00 | 85 | 1018.8 |
| 20260504043940 | 12 | 199 | 0.0 | 0.0 | 0.00 | 0.00 | 0.00 | 85 | 1018.8 |
| 20260504043437 | 12 | 199 | 0.0 | 0.0 | 0.00 | 0.00 | 0.00 | 86 | 1018.8 |
| 20260504042934 | 12 | 199 | 0.0 | 0.0 | 0.00 | 0.00 | 0.00 | 85 | 1018.8 |
| 20260504042431 | 12 | 199 | 0.0 | 0.0 | 0.00 | 0.00 | 0.00 | 85 | 1018.7 |
| 20260504041927 | 12 | 199 | 0.0 | 0.0 | 0.00 | 0.00 | 0.00 | 85 | 1018.7 |
| 20260504041424 | 12 | 199 | 0.0 | 0.0 | 0.00 | 0.00 | 0.00 | 85 | 1018.8 |
| 20260504040920 | 12 | 199 | 0.0 | 0.0 | 0.00 | 0.00 | 0.00 | 85 | 1018.7 |
| 20260504040418 | 12 | 200 | 0.0 | 0.0 | 0.00 | 0.00 | 0.00 | 85 | 1018.6 |
| 20260504035913 | 12 | 200 | 0.0 | 0.0 | 0.00 | 0.00 | 0.00 | 85 | 1018.7 |
| 20260504035411 | 12 | 200 | 0.0 | 0.0 | 0.00 | 0.00 | 0.00 | 84 | 1018.8 |
| 20260504034908 | 12 | 200 | 0.0 | 0.0 | 0.00 | 0.00 | 0.00 | 84 | 1018.6 |
| 20260504034405 | 12 | 199 | 0.0 | 0.0 | 0.00 | 0.00 | 0.00 | 84 | 1018.4 |
| 20260504033902 | 12 | 200 | 0.0 | 0.0 | 0.00 | 0.00 | 0.00 | 83 | 1018.5 |
| 20260504033400 | 13 | 200 | 0.0 | 0.0 | 0.00 | 0.00 | 0.00 | 83 | 1018.6 |
| 20260504032856 | 13 | 200 | 0.0 | 1.6 | 0.00 | 0.00 | 0.00 | 82 | 1018.8 |
| 20260504032353 | 13 | 200 | 0.0 | 0.0 | 0.00 | 0.00 | 0.00 | 82 | 1018.6 |
| 20260504031850 | 13 | 200 | 0.0 | 0.0 | 0.00 | 0.00 | 0.00 | 82 | 1018.9 |
| 20260504031347 | 13 | 200 | 0.0 | 0.0 | 0.00 | 0.00 | 0.00 | 82 | 1018.7 |
| 20260504030843 | 13 | 200 | 0.0 | 0.0 | 0.00 | 0.00 | 0.00 | 81 | 1018.5 |
| 20260504030341 | 14 | 200 | 0.0 | 0.0 | 0.00 | 0.00 | 0.00 | 81 | 1018.7 |
| 20260504025837 | 14 | 199 | 0.0 | 0.0 | 0.00 | 0.00 | 0.00 | 77 | 1018.7 |
| 20260504025334 | 15 | 199 | 0.0 | 0.0 | 0.00 | 0.00 | 0.00 | 75 | 1018.7 |
| 20260504024831 | 14 | 199 | 0.0 | 0.0 | 0.00 | 0.00 | 0.00 | 75 | 1018.7 |
| 20260504024327 | 14 | 199 | 0.0 | 0.0 | 0.00 | 0.00 | 0.00 | 75 | 1018.5 |
| 20260504023824 | 15 | 199 | 0.0 | 1.6 | 0.00 | 0.00 | 0.00 | 77 | 1018.5 |
| 20260504023321 | 15 | 199 | 0.0 | 0.0 | 0.00 | 0.00 | 0.00 | 76 | 1018.5 |
| 20260504022816 | 15 | 199 | 0.0 | 0.0 | 0.00 | 0.00 | 0.00 | 73 | 1018.5 |
| 20260504022314 | 15 | 199 | 0.0 | 0.0 | 0.00 | 0.00 | 0.00 | 72 | 1018.5 |
| 20260504021810 | 15 | 199 | 1.6 | 1.6 | 0.00 | 0.00 | 0.00 | 71 | 1018.5 |
| 20260504021308 | 15 | 196 | 3.2 | 4.8 | 0.00 | 0.00 | 0.00 | 73 | 1018.2 |
| 20260504020804 | 15 | 196 | 0.0 | 0.0 | 0.00 | 0.00 | 0.00 | 76 | 1018.2 |
| 20260504020301 | 16 | 197 | 0.0 | 0.0 | 0.00 | 0.00 | 0.00 | 72 | 1018.0 |
| 20260504015757 | 16 | 196 | 1.6 | 1.6 | 0.00 | 0.00 | 0.00 | 73 | 1018.2 |
| 20260504015253 | 16 | 197 | 0.0 | 0.0 | 0.00 | 0.00 | 0.00 | 70 | 1018.2 |
| 20260504014749 | 16 | 196 | 0.0 | 0.0 | 0.00 | 0.00 | 0.00 | 65 | 1018.2 |
| 20260504014246 | 16 | 196 | 1.6 | 1.6 | 0.00 | 0.00 | 0.00 | 64 | 1018.0 |
| 20260504013744 | 16 | 196 | 1.6 | 1.6 | 0.00 | 0.00 | 0.00 | 62 | 1017.9 |
| 20260504013241 | 16 | 196 | 0.0 | 1.6 | 0.00 | 0.00 | 0.00 | 62 | 1017.9 |
| 20260504012737 | 16 | 196 | 0.0 | 0.0 | 0.00 | 0.00 | 0.00 | 62 | 1017.9 |
| 20260504012235 | 16 | 196 | 1.6 | 4.8 | 0.00 | 0.00 | 0.00 | 63 | 1018.0 |
| 20260504011732 | 16 | 199 | 1.6 | 1.6 | 0.00 | 0.00 | 0.00 | 66 | 1017.7 |
| 20260504011229 | 16 | 199 | 0.0 | 0.0 | 0.00 | 0.00 | 0.00 | 66 | 1017.6 |
| 20260504010725 | 17 | 201 | 0.0 | 0.0 | 0.00 | 0.00 | 0.00 | 59 | 1017.5 |
| 20260504010220 | 17 | 200 | 0.0 | 0.0 | 0.00 | 0.00 | 0.00 | 55 | 1017.5 |
| 20260504005717 | 18 | 200 | 0.0 | 0.0 | 0.00 | 0.00 | 0.00 | 56 | 1017.3 |
| 20260504005215 | 18 | 200 | 0.0 | 0.0 | 0.00 | 0.00 | 0.00 | 61 | 1017.6 |
| 20260504004712 | 19 | 200 | 0.0 | 0.0 | 0.00 | 0.00 | 0.00 | 53 | 1017.3 |
| 20260504004209 | 20 | 200 | 0.0 | 1.6 | 0.00 | 0.00 | 0.00 | 49 | 1017.4 |
| 20260504003706 | 20 | 200 | 0.0 | 1.6 | 0.00 | 0.00 | 0.00 | 48 | 1017.3 |
| 20260504003203 | 21 | 200 | 0.0 | 0.0 | 0.00 | 0.00 | 0.00 | 45 | 1017.4 |
| 20260504002659 | 21 | 200 | 0.0 | 0.0 | 0.00 | 0.00 | 0.00 | 44 | 1017.3 |
| 20260504002157 | 22 | 200 | 0.0 | 4.8 | 0.00 | 0.00 | 0.00 | 39 | 1017.2 |
| 20260504001655 | 22 | 202 | 1.6 | 1.6 | 0.00 | 0.00 | 0.00 | 38 | 1017.2 |
| 20260504001150 | 22 | 200 | 3.2 | 4.8 | 0.00 | 0.00 | 0.00 | 37 | 1017.2 |
| 20260504000647 | 22 | 196 | 3.2 | 4.8 | 0.00 | 0.00 | 0.00 | 37 | 1016.9 |
| 20260504000145 | 22 | 190 | 4.8 | 6.4 | 0.00 | 0.00 | 0.00 | 36 | 1017.1 |
| 20260503235643 | 23 | 196 | 3.2 | 6.4 | 0.00 | 0.00 | 0.00 | 36 | 1017.2 |
| 20260503235139 | 23 | 200 | 1.6 | 6.4 | 0.00 | 0.00 | 0.00 | 36 | 1017.1 |
| 20260503234638 | 23 | 199 | 3.2 | 8.0 | 0.00 | 0.00 | 0.00 | 34 | 1017.0 |
| 20260503234135 | 23 | 200 | 0.0 | 4.8 | 0.00 | 0.00 | 0.00 | 35 | 1017.1 |
| 20260503233632 | 23 | 191 | 6.4 | 6.4 | 0.00 | 0.00 | 0.00 | 33 | 1017.0 |
| 20260503233127 | 23 | 197 | 3.2 | 6.4 | 0.00 | 0.00 | 0.00 | 34 | 1017.2 |
| 20260503232625 | 24 | 197 | 8.0 | 12.9 | 0.00 | 0.00 | 0.00 | 32 | 1017.1 |
| 20260503232122 | 24 | 207 | 3.2 | 11.3 | 0.00 | 0.00 | 0.00 | 32 | 1017.1 |
| 20260503231620 | 24 | 198 | 3.2 | 8.0 | 0.00 | 0.00 | 0.00 | 32 | 1017.1 |
| 20260503231116 | 24 | 209 | 0.0 | 4.8 | 0.00 | 0.00 | 0.00 | 32 | 1017.0 |
| 20260503230613 | 24 | 205 | 1.6 | 11.3 | 0.00 | 0.00 | 0.00 | 31 | 1017.0 |
| 20260503230110 | 24 | 197 | 3.2 | 6.4 | 0.00 | 0.00 | 0.00 | 31 | 1017.1 |
| 20260503225608 | 25 | 194 | 8.0 | 12.9 | 0.00 | 0.00 | 0.00 | 31 | 1017.0 |
| 20260503225107 | 25 | 220 | 11.3 | 12.9 | 0.00 | 0.00 | 0.00 | 30 | 1017.0 |
| 20260503224605 | 25 | 190 | 12.9 | 17.7 | 0.00 | 0.00 | 0.00 | 30 | 1017.1 |
| 20260503224103 | 25 | 186 | 14.5 | 19.3 | 0.00 | 0.00 | 0.00 | 30 | 1017.1 |
| 20260503223601 | 25 | 200 | 9.7 | 12.9 | 0.00 | 0.00 | 0.00 | 30 | 1016.8 |
| 20260503223056 | 25 | 192 | 4.8 | 11.3 | 0.00 | 0.00 | 0.00 | 30 | 1016.7 |
| 20260503222554 | 25 | 232 | 3.2 | 6.4 | 0.00 | 0.00 | 0.00 | 29 | 1017.0 |
| 20260503222052 | 25 | 201 | 9.7 | 12.9 | 0.00 | 0.00 | 0.00 | 28 | 1016.9 |
| 20260503221550 | 25 | 198 | 4.8 | 16.1 | 0.00 | 0.00 | 0.00 | 29 | 1016.9 |
| 20260503221047 | 25 | 191 | 0.0 | 1.6 | 0.00 | 0.00 | 0.00 | 28 | 1017.0 |
| 20260503220543 | 25 | 197 | 8.0 | 12.9 | 0.00 | 0.00 | 0.00 | 28 | 1017.1 |
| 20260503220040 | 26 | 188 | 4.8 | 16.1 | 0.00 | 0.00 | 0.00 | 28 | 1017.2 |
| 20260503215537 | 26 | 192 | 9.7 | 16.1 | 0.00 | 0.00 | 0.00 | 28 | 1017.2 |
| 20260503215034 | 27 | 193 | 4.8 | 17.7 | 0.00 | 0.00 | 0.00 | 27 | 1017.1 |
| 20260503214532 | 27 | 187 | 8.0 | 16.1 | 0.00 | 0.00 | 0.00 | 27 | 1017.3 |
| 20260503214029 | 27 | 202 | 0.0 | 4.8 | 0.00 | 0.00 | 0.00 | 28 | 1017.3 |
| 20260503213527 | 27 | 224 | 6.4 | 16.1 | 0.00 | 0.00 | 0.00 | 27 | 1017.6 |
| 20260503213024 | 26 | 191 | 6.4 | 12.9 | 0.00 | 0.00 | 0.00 | 28 | 1017.6 |
| 20260503212521 | 27 | 189 | 14.5 | 22.5 | 0.00 | 0.00 | 0.00 | 28 | 1017.3 |
| 20260503212018 | 26 | 208 | 4.8 | 12.9 | 0.00 | 0.00 | 0.00 | 27 | 1017.5 |
| 20260503211515 | 26 | 190 | 6.4 | 12.9 | 0.00 | 0.00 | 0.00 | 27 | 1017.5 |
| 20260503211011 | 27 | 207 | 14.5 | 24.1 | 0.00 | 0.00 | 0.00 | 26 | 1017.5 |
| 20260503210508 | 27 | 214 | 9.7 | 17.7 | 0.00 | 0.00 | 0.00 | 26 | 1017.5 |
| 20260503210003 | 28 | 194 | 12.9 | 17.7 | 0.00 | 0.00 | 0.00 | 26 | 1017.7 |
| 20260503205500 | 28 | 204 | 4.8 | 12.9 | 0.00 | 0.00 | 0.00 | 28 | 1017.5 |
| 20260503204956 | 27 | 184 | 9.7 | 16.1 | 0.00 | 0.00 | 0.00 | 27 | 1017.8 |
| 20260503204454 | 27 | 193 | 4.8 | 17.7 | 0.00 | 0.00 | 0.00 | 27 | 1017.7 |
| 20260503203950 | 27 | 202 | 4.8 | 11.3 | 0.00 | 0.00 | 0.00 | 27 | 1017.7 |
| 20260503203448 | 28 | 195 | 11.3 | 16.1 | 0.00 | 0.00 | 0.00 | 26 | 1017.8 |
| 20260503202944 | 28 | 198 | 3.2 | 11.3 | 0.00 | 0.00 | 0.00 | 30 | 1018.0 |
| 20260503202443 | 27 | 196 | 8.0 | 16.1 | 0.00 | 0.00 | 0.00 | 28 | 1018.0 |
| 20260503201941 | 27 | 208 | 1.6 | 8.0 | 0.00 | 0.00 | 0.00 | 27 | 1018.1 |
| 20260503201438 | 27 | 192 | 9.7 | 19.3 | 0.00 | 0.00 | 0.00 | 28 | 1018.1 |
| 20260503200935 | 27 | 210 | 16.1 | 25.7 | 0.00 | 0.00 | 0.00 | 26 | 1018.1 |
| 20260503200431 | 27 | 192 | 9.7 | 16.1 | 0.00 | 0.00 | 0.00 | 28 | 1018.0 |
| 20260503195928 | 27 | 204 | 4.8 | 11.3 | 0.00 | 0.00 | 0.00 | 26 | 1018.4 |
| 20260503195426 | 27 | 193 | 4.8 | 11.3 | 0.00 | 0.00 | 0.00 | 26 | 1018.5 |
| 20260503194922 | 27 | 198 | 1.6 | 12.9 | 0.00 | 0.00 | 0.00 | 26 | 1018.5 |
| 20260503194419 | 26 | 193 | 0.0 | 11.3 | 0.00 | 0.00 | 0.00 | 29 | 1018.8 |
| 20260503193914 | 26 | 194 | 11.3 | 24.1 | 0.00 | 0.00 | 0.00 | 27 | 1018.9 |
| 20260503193410 | 27 | 192 | 6.4 | 12.9 | 0.00 | 0.00 | 0.00 | 28 | 1018.7 |
| 20260503192906 | 27 | 199 | 3.2 | 11.3 | 0.00 | 0.00 | 0.00 | 28 | 1018.9 |
| 20260503192402 | 27 | 199 | 8.0 | 17.7 | 0.00 | 0.00 | 0.00 | 28 | 1019.1 |
| 20260503191858 | 27 | 190 | 6.4 | 17.7 | 0.00 | 0.00 | 0.00 | 29 | 1019.1 |
| 20260503191355 | 27 | 198 | 3.2 | 6.4 | 0.00 | 0.00 | 0.00 | 30 | 1019.2 |
| 20260503190852 | 27 | 225 | 4.8 | 8.0 | 0.00 | 0.00 | 0.00 | 26 | 1019.4 |
| 20260503190349 | 27 | 187 | 9.7 | 12.9 | 0.00 | 0.00 | 0.00 | 28 | 1019.4 |
| 20260503185846 | 26 | 195 | 9.7 | 16.1 | 0.00 | 0.00 | 0.00 | 25 | 1019.4 |
| 20260503185342 | 26 | 195 | 11.3 | 12.9 | 0.00 | 0.00 | 0.00 | 27 | 1019.6 |
| 20260503184842 | 26 | 200 | 8.0 | 16.1 | 0.00 | 0.00 | 0.00 | 27 | 1019.5 |
| 20260503184338 | 26 | 198 | 16.1 | 19.3 | 0.00 | 0.00 | 0.00 | 28 | 1019.7 |
| 20260503183834 | 26 | 190 | 6.4 | 12.9 | 0.00 | 0.00 | 0.00 | 28 | 1019.6 |
| 20260503183332 | 26 | 189 | 4.8 | 25.7 | 0.00 | 0.00 | 0.00 | 28 | 1019.8 |
| 20260503182829 | 27 | 174 | 9.7 | 16.1 | 0.00 | 0.00 | 0.00 | 28 | 1019.9 |
| 20260503182328 | 26 | 191 | 9.7 | 11.3 | 0.00 | 0.00 | 0.00 | 31 | 1020.0 |
| 20260503181825 | 26 | 185 | 12.9 | 19.3 | 0.00 | 0.00 | 0.00 | 29 | 1019.9 |
| 20260503181322 | 26 | 199 | 9.7 | 16.1 | 0.00 | 0.00 | 0.00 | 28 | 1019.9 |
| 20260503180818 | 26 | 198 | 4.8 | 11.3 | 0.00 | 0.00 | 0.00 | 31 | 1019.8 |
| 20260503180316 | 26 | 194 | 6.4 | 24.1 | 0.00 | 0.00 | 0.00 | 27 | 1019.8 |
| 20260503175812 | 26 | 208 | 3.2 | 22.5 | 0.00 | 0.00 | 0.00 | 31 | 1019.8 |
| 20260503175311 | 26 | 193 | 11.3 | 12.9 | 0.00 | 0.00 | 0.00 | 29 | 1020.0 |
| 20260503174806 | 26 | 201 | 4.8 | 11.3 | 0.00 | 0.00 | 0.00 | 33 | 1020.0 |
| 20260503174304 | 26 | 196 | 11.3 | 17.7 | 0.00 | 0.00 | 0.00 | 26 | 1020.0 |
| 20260503173759 | 25 | 194 | 6.4 | 12.9 | 0.00 | 0.00 | 0.00 | 28 | 1020.1 |
| 20260503173255 | 25 | 201 | 9.7 | 17.7 | 0.00 | 0.00 | 0.00 | 28 | 1020.2 |
| 20260503172752 | 25 | 195 | 4.8 | 8.0 | 0.00 | 0.00 | 0.00 | 30 | 1020.2 |
| 20260503172250 | 25 | 182 | 9.7 | 12.9 | 0.00 | 0.00 | 0.00 | 31 | 1020.3 |
| 20260503171746 | 25 | 266 | 1.6 | 11.3 | 0.00 | 0.00 | 0.00 | 31 | 1020.3 |
| 20260503171243 | 25 | 192 | 12.9 | 19.3 | 0.00 | 0.00 | 0.00 | 27 | 1020.3 |
| 20260503170740 | 25 | 199 | 8.0 | 11.3 | 0.00 | 0.00 | 0.00 | 28 | 1020.6 |
| 20260503170237 | 25 | 197 | 8.0 | 11.3 | 0.00 | 0.00 | 0.00 | 28 | 1020.6 |
| 20260503160159 | 23 | 187 | 14.5 | 22.5 | 0.00 | 0.00 | 0.00 | 31 | 1021.3 |
| 20260503150629 | 22 | 205 | 9.7 | 12.9 | 0.00 | 0.00 | 0.00 | 36 | 1021.7 |
| 20260503150125 | 21 | 207 | 6.4 | 11.3 | 0.00 | 0.00 | 0.00 | 39 | 1021.6 |
| 20260503131019 | 13 | 197 | 1.6 | 6.4 | 0.00 | 0.00 | 0.00 | 73 | 1020.6 |
| 20260503130516 | 13 | 197 | 0.0 | 1.6 | 0.00 | 0.00 | 0.00 | 78 | 1020.4 |
| 20260503110412 | 6 | 198 | 0.0 | 0.0 | 0.00 | 0.00 | 0.00 | 95 | 1020.0 |
| 20260503090309 | 6 | 199 | 0.0 | 0.0 | 0.00 | 0.00 | 0.00 | 94 | 1019.3 |